Findlay, OH

10:55 PM EDT on September 18, 2019 (GMT -0400)
Findlay

Weather History for KFDY - July, 2019

Change the Weather History Date:

Saturday, July 13, 2019

  Actual Average Record
Temperature  
Mean Temperature 78 °F -  
Max Temperature 91 °F 83 °F 95 °F (1952)
Min Temperature 64 °F 62 °F 50 °F (1976)
Cooling Degree Days 12    
Growing Degree Days 28 (Base 50)    
Moisture  
Dew Point 62 °F    
Average Humidity 58    
Maximum Humidity 84    
Minimum Humidity 37    
Precipitation  
Precipitation 0.00 in - - ()
Sea Level Pressure  
Sea Level Pressure 29.97 in    
Wind  
Wind Speed 7 mph (WSW)    
Max Wind Speed 18 mph    
Max Gust Speed 24 mph    
Visibility 10 miles    
Events      
Averages and records for this station are not official NWS values.
T = Trace of Precipitation, MM = Missing Value Source: NWS Daily Summary

Daily Weather History Graph

Daily Weather History Graph

Search for Another Location

Airport or City:

Astronomy

Jul. 13, 2019 Rise Set
Actual Time 6:13 AM EDT 9:06 PM EDT
Civil Twilight 5:41 AM EDT 9:39 PM EDT
Nautical Twilight 4:59 AM EDT 10:20 PM EDT
Astronomical Twilight 4:11 AM EDT 11:08 PM EDT
Moon 6:28 PM EDT (7/13) 3:33 AM EDT (7/13)
Length of Visible Light 15h 58m
Length of Day
14h 52m
Waxing Gibbous, 90% of the Moon is Illuminated
Jul 13
Waxing Gibbous
Jul 16
Full
Jul 24
Last Quarter
Jul 31
New
Aug 7
First Quarter

Hourly Weather History & Observations

Time (EDT) Temp. Heat Index Dew Point Humidity Pressure Visibility Wind Dir Wind Speed Gust Speed Precip Events Conditions
12:53 AM 69.1 °F - 60.1 °F 73% 29.93 in 10.0 mi WSW 3.5 mph - N/A   Clear
1:53 AM 69.1 °F - 60.1 °F 73% 29.95 in 10.0 mi West 3.5 mph - N/A   Clear
2:53 AM 66.9 °F - 60.1 °F 79% 29.96 in 10.0 mi Calm Calm - N/A   Clear
3:53 AM 66.9 °F - 59.0 °F 76% 29.96 in 10.0 mi Calm Calm - N/A   Clear
4:53 AM 64.0 °F - 57.9 °F 80% 29.95 in 10.0 mi South 4.6 mph - N/A   Clear
5:53 AM 64.0 °F - 57.9 °F 80% 29.96 in 10.0 mi South 3.5 mph - N/A   Clear
6:53 AM 64.0 °F - 59.0 °F 84% 29.97 in 10.0 mi SSW 4.6 mph - N/A   Clear
7:53 AM 70.0 °F - 59.0 °F 68% 29.97 in 10.0 mi South 4.6 mph - N/A   Clear
8:53 AM 75.9 °F - 61.0 °F 60% 29.99 in 10.0 mi SSW 9.2 mph - N/A   Clear
9:53 AM 81.0 °F 81.9 °F 62.1 °F 52% 29.99 in 10.0 mi SW 10.4 mph - N/A   Clear
10:53 AM 82.9 °F 83.7 °F 62.1 °F 49% 29.99 in 10.0 mi WSW 13.8 mph - N/A   Clear
11:53 AM 86.0 °F 87.3 °F 64.0 °F 48% 29.99 in 10.0 mi WSW 13.8 mph - N/A   Clear
12:53 PM 87.1 °F 87.8 °F 63.0 °F 44% 29.99 in 10.0 mi WSW 12.7 mph 21.9 mph N/A   Clear
1:53 PM 89.1 °F 89.3 °F 62.1 °F 40% 29.99 in 10.0 mi WSW 17.3 mph 23.0 mph N/A   Clear
2:53 PM 90.0 °F 90.6 °F 63.0 °F 40% 29.96 in 10.0 mi WSW 15.0 mph 24.2 mph N/A   Clear
3:53 PM 91.0 °F 91.9 °F 63.0 °F 39% 29.97 in 10.0 mi WSW 13.8 mph 24.2 mph N/A   Clear
4:53 PM 91.0 °F 91.9 °F 63.0 °F 39% 29.96 in 10.0 mi WSW 18.4 mph 24.2 mph N/A   Clear
5:53 PM 91.9 °F 92.5 °F 62.1 °F 37% 29.95 in 10.0 mi West 13.8 mph - N/A   Clear
6:53 PM 90.0 °F 91.7 °F 64.9 °F 43% 29.94 in 10.0 mi WSW 13.8 mph - N/A   Clear
7:53 PM 89.1 °F 91.0 °F 64.9 °F 45% 29.94 in 10.0 mi West 11.5 mph - N/A   Clear
8:53 PM 84.0 °F 86.3 °F 66.0 °F 55% 29.95 in 10.0 mi WSW 8.1 mph - N/A   Clear
9:53 PM 81.0 °F 83.0 °F 66.0 °F 60% 29.97 in 10.0 mi WSW 5.8 mph - N/A   Clear
10:53 PM 80.1 °F 82.3 °F 66.9 °F 64% 29.99 in 10.0 mi WSW 4.6 mph - N/A   Clear
11:53 PM 78.1 °F - 68.0 °F 71% 30.00 in 10.0 mi West 4.6 mph - N/A   Clear